Location: Unspecified
(40.9447°N, 78.9903°W)
Time: 02:30:21
(UTC-04:00)

Okean 3 - Pass Details

Date: 30 July 2021
Orbit: 575 x 601 km, 82.5° (Epoch: 26 September)

Event Time Altitude Azimuth Distance (km) Brightness Sun altitude
Rises 02:51:30 0° 340° (NNW) 2,848 7.6 -27.1°
Reaches altitude 10° 02:53:57 10° 329° (NNW) 1,937 6.5 -26.9°
Enters shadow 02:55:45 20° 310° (NW) 1,390 5.5 -26.8°
